Time,TemperatureF,DewpointF,PressureIn,WindDirection,WindDirectionDegrees,WindSpeedMPH,WindSpeedGustMPH,Humidity,HourlyPrecipIn,Conditions,Clouds,dailyrainin,SoftwareType,DateUTC
2013-04-18 00:00:00,74.7,44.4,27.58,SSE,158,10.0,12.3,34,0.00,,,-99.99,FreeWX-Wi 1.01,2013-04-18 04:00:00,
2013-04-18 00:05:00,74.7,44.4,27.58,SSE,160,9.0,12.8,34,0.00,,,-99.99,FreeWX-Wi 1.01,2013-04-18 04:05:00,
2013-04-18 00:10:00,74.5,44.2,27.58,SSE,161,9.0,15.0,34,0.00,,,-99.99,FreeWX-Wi 1.01,2013-04-18 04:10:00,
2013-04-18 00:15:00,74.3,44.8,27.58,SSE,163,9.0,12.8,35,0.00,,,-99.99,FreeWX-Wi 1.01,2013-04-18 04:15:00,
2013-04-18 00:20:00,74.3,44.8,27.61,SSE,165,9.0,11.9,35,0.00,,,-99.99,FreeWX-Wi 1.01,2013-04-18 04:20:00,
2013-04-18 00:25:00,74.3,44.8,27.61,SSE,166,9.0,12.8,35,0.00,,,-99.99,FreeWX-Wi 1.01,2013-04-18 04:25:00,
2013-04-18 00:30:00,74.1,45.5,27.61,SSE,167,8.0,11.0,36,0.00,,,-99.99,FreeWX-Wi 1.01,2013-04-18 04:30:00,
2013-04-18 00:35:00,73.9,45.3,27.61,SSE,166,8.0,12.3,36,0.00,,,-99.99,FreeWX-Wi 1.01,2013-04-18 04:35:00,
2013-04-18 00:40:00,73.9,45.3,27.61,SSE,164,8.0,10.1,36,0.00,,,-99.99,FreeWX-Wi 1.01,2013-04-18 04:40:00,
2013-04-18 00:45:00,73.8,45.1,27.61,SSE,165,8.0,9.2,36,0.00,,,-99.99,FreeWX-Wi 1.01,2013-04-18 04:45:00,
2013-04-18 00:50:00,73.8,45.9,27.61,SSE,166,7.0,12.3,37,0.00,,,-99.99,FreeWX-Wi 1.01,2013-04-18 04:50:00,
2013-04-18 00:55:00,73.6,45.7,27.61,SSE,166,7.0,8.3,37,0.00,,,-99.99,FreeWX-Wi 1.01,2013-04-18 04:55:00,
2013-04-18 01:00:00,73.6,45.7,27.61,SSE,168,6.0,8.7,37,0.00,,,-99.99,FreeWX-Wi 1.01,2013-04-18 05:00:00,
2013-04-18 01:05:00,73.4,45.5,27.61,South,170,6.0,8.3,37,0.00,,,-99.99,FreeWX-Wi 1.01,2013-04-18 05:05:00,
2013-04-18 01:10:00,73.2,46.0,27.61,South,170,6.0,8.3,38,0.00,,,-99.99,FreeWX-Wi 1.01,2013-04-18 05:10:00,
2013-04-18 01:15:00,73.2,46.0,27.61,South,170,5.0,8.3,38,0.00,,,-99.99,FreeWX-Wi 1.01,2013-04-18 05:15:00,
2013-04-18 01:20:00,73.0,46.6,27.61,South,170,5.0,10.1,39,0.00,,,-99.99,FreeWX-Wi 1.01,2013-04-18 05:20:00,
2013-04-18 01:25:00,72.9,46.4,27.61,South,170,5.0,8.3,39,0.00,,,-99.99,FreeWX-Wi 1.01,2013-04-18 05:25:00,
2013-04-18 01:30:00,72.9,46.4,27.61,SSE,168,5.0,8.3,39,0.00,,,-99.99,FreeWX-Wi 1.01,2013-04-18 05:30:00,
2013-04-18 01:35:00,72.7,46.9,27.61,SSE,166,5.0,10.5,40,0.00,,,-99.99,FreeWX-Wi 1.01,2013-04-18 05:35:00,
2013-04-18 01:40:00,72.7,46.9,27.61,SSE,167,5.0,11.0,40,0.00,,,-99.99,FreeWX-Wi 1.01,2013-04-18 05:40:00,
2013-04-18 01:45:00,72.7,46.9,27.61,SSE,167,5.0,8.1,40,0.00,,,-99.99,FreeWX-Wi 1.01,2013-04-18 05:45:00,
2013-04-18 01:50:00,72.7,47.7,27.61,SSE,167,5.0,6.7,41,0.00,,,-99.99,FreeWX-Wi 1.01,2013-04-18 05:50:00,
2013-04-18 01:55:00,72.7,47.7,27.61,SSE,167,5.0,8.3,41,0.00,,,-99.99,FreeWX-Wi 1.01,2013-04-18 05:55:00,
2013-04-18 02:00:00,72.5,47.5,27.61,South,169,5.0,5.8,41,0.00,,,-99.99,FreeWX-Wi 1.01,2013-04-18 06:00:00,
2013-04-18 02:05:00,72.5,47.5,27.61,South,171,4.0,6.3,41,0.00,,,-99.99,FreeWX-Wi 1.01,2013-04-18 06:05:00,
2013-04-18 02:10:00,72.7,47.7,27.61,South,173,4.0,8.7,41,0.00,,,-99.99,FreeWX-Wi 1.01,2013-04-18 06:10:00,
2013-04-18 02:15:00,72.7,48.2,27.61,South,174,4.0,8.3,42,0.00,,,-99.99,FreeWX-Wi 1.01,2013-04-18 06:15:00,
2013-04-18 02:20:00,72.9,48.4,27.61,South,174,4.0,8.3,42,0.00,,,-99.99,FreeWX-Wi 1.01,2013-04-18 06:20:00,
2013-04-18 02:25:00,72.9,48.4,27.61,South,175,4.0,11.0,42,0.00,,,-99.99,FreeWX-Wi 1.01,2013-04-18 06:25:00,
2013-04-18 02:30:00,72.9,48.4,27.61,South,177,4.0,7.6,42,0.00,,,-99.99,FreeWX-Wi 1.01,2013-04-18 06:30:00,
2013-04-18 02:35:00,73.0,48.6,27.64,South,183,4.0,8.7,42,0.00,,,-99.99,FreeWX-Wi 1.01,2013-04-18 06:35:00,
2013-04-18 02:40:00,73.0,49.3,27.64,SSW,192,4.0,8.3,43,0.00,,,-99.99,FreeWX-Wi 1.01,2013-04-18 06:40:00,
2013-04-18 02:45:00,73.0,49.8,27.64,SSW,208,5.0,13.2,44,0.00,,,-99.99,FreeWX-Wi 1.01,2013-04-18 06:45:00,
2013-04-18 02:50:00,72.1,40.6,27.67,SW,230,6.0,15.4,32,0.00,,,-99.99,FreeWX-Wi 1.01,2013-04-18 06:50:00,
2013-04-18 02:55:00,70.3,39.9,27.67,WSW,251,7.0,18.3,33,0.00,,,-99.99,FreeWX-Wi 1.01,2013-04-18 06:55:00,
2013-04-18 03:00:00,66.7,36.7,27.67,West,265,8.0,28.0,33,0.04,,,-99.99,FreeWX-Wi 1.01,2013-04-18 07:00:00,
2013-04-18 03:05:00,62.2,35.6,27.70,West,277,9.0,25.7,37,0.08,,,-99.99,FreeWX-Wi 1.01,2013-04-18 07:05:00,
2013-04-18 03:10:00,58.5,37.8,27.70,WNW,300,12.0,27.5,46,0.08,,,-99.99,FreeWX-Wi 1.01,2013-04-18 07:10:00,
2013-04-18 03:15:00,57.2,38.3,27.70,NW,316,13.0,26.2,49,0.08,,,-99.99,FreeWX-Wi 1.01,2013-04-18 07:15:00,
2013-04-18 03:20:00,55.9,38.5,27.70,NNW,329,15.0,29.3,52,0.08,,,-99.99,FreeWX-Wi 1.01,2013-04-18 07:20:00,
2013-04-18 03:25:00,55.2,37.9,27.70,NNW,332,16.0,22.4,52,0.08,,,-99.99,FreeWX-Wi 1.01,2013-04-18 07:25:00,
2013-04-18 03:30:00,54.5,36.7,27.70,NNW,337,17.0,33.8,51,0.08,,,-99.99,FreeWX-Wi 1.01,2013-04-18 07:30:00,
2013-04-18 03:35:00,52.9,34.7,27.73,NNW,341,17.0,26.2,50,0.08,,,-99.99,FreeWX-Wi 1.01,2013-04-18 07:35:00,
2013-04-18 03:40:00,52.5,34.3,27.73,NNW,342,17.0,27.5,50,0.08,,,-99.99,FreeWX-Wi 1.01,2013-04-18 07:40:00,
2013-04-18 03:45:00,52.0,34.0,27.73,NNW,343,17.0,22.8,50,0.08,,,-99.99,FreeWX-Wi 1.01,2013-04-18 07:45:00,
2013-04-18 03:50:00,51.8,34.3,27.76,NNW,343,16.0,21.9,51,0.08,,,-99.99,FreeWX-Wi 1.01,2013-04-18 07:50:00,
2013-04-18 03:55:00,51.6,34.5,27.76,NNW,344,15.0,23.3,52,0.08,,,-99.99,FreeWX-Wi 1.01,2013-04-18 07:55:00,
2013-04-18 04:00:00,50.9,34.9,27.76,NNW,348,14.0,18.8,54,0.04,,,-99.99,FreeWX-Wi 1.01,2013-04-18 08:00:00,
2013-04-18 04:05:00,50.2,32.2,27.76,North,350,13.0,22.4,50,0.00,,,-99.99,FreeWX-Wi 1.01,2013-04-18 08:05:00,
2013-04-18 04:10:00,49.8,32.0,27.76,North,351,13.0,21.9,50,0.00,,,-99.99,FreeWX-Wi 1.01,2013-04-18 08:10:00,
2013-04-18 04:15:00,49.5,31.1,27.76,North,353,12.0,21.9,49,0.00,,,-99.99,FreeWX-Wi 1.01,2013-04-18 08:15:00,
2013-04-18 04:20:00,49.3,31.5,27.76,North,353,12.0,12.0,50,0.00,,,-99.99,FreeWX-Wi 1.01,2013-04-18 08:20:00,
2013-04-18 04:25:00,48.7,30.4,27.76,North,353,12.0,14.1,49,0.00,,,-99.99,FreeWX-Wi 1.01,2013-04-18 08:25:00,
2013-04-18 04:30:00,48.6,29.8,27.76,North,353,12.0,17.4,48,0.00,,,-99.99,FreeWX-Wi 1.01,2013-04-18 08:30:00,
2013-04-18 04:35:00,48.2,29.5,27.76,North,354,13.0,22.8,48,0.00,,,-99.99,FreeWX-Wi 1.01,2013-04-18 08:35:00,
2013-04-18 04:40:00,48.0,29.8,27.76,North,355,13.0,25.1,49,0.00,,,-99.99,FreeWX-Wi 1.01,2013-04-18 08:40:00,
2013-04-18 04:45:00,47.7,29.5,27.76,North,354,13.0,22.8,49,0.00,,,-99.99,FreeWX-Wi 1.01,2013-04-18 08:45:00,
2013-04-18 04:50:00,47.7,30.0,27.79,North,351,13.0,15.0,50,0.00,,,-99.99,FreeWX-Wi 1.01,2013-04-18 08:50:00,
2013-04-18 04:55:00,47.5,29.8,27.79,NNW,348,12.0,15.0,50,0.00,,,-99.99,FreeWX-Wi 1.01,2013-04-18 08:55:00,
2013-04-18 05:00:00,47.5,29.8,27.79,NNW,348,12.0,17.4,50,0.00,,,-99.99,FreeWX-Wi 1.01,2013-04-18 09:00:00,
2013-04-18 05:05:00,47.5,30.2,27.79,NNW,348,11.0,15.0,51,0.00,,,-99.99,FreeWX-Wi 1.01,2013-04-18 09:05:00,
2013-04-18 05:10:00,47.5,30.2,27.79,NNW,347,11.0,21.0,51,0.00,,,-99.99,FreeWX-Wi 1.01,2013-04-18 09:10:00,
2013-04-18 05:15:00,47.3,30.0,27.79,NNW,345,10.0,15.9,51,0.00,,,-99.99,FreeWX-Wi 1.01,2013-04-18 09:15:00,
2013-04-18 05:20:00,47.1,29.5,27.76,NNW,346,10.0,16.8,50,0.00,,,-99.99,FreeWX-Wi 1.01,2013-04-18 09:20:00,
2013-04-18 05:25:00,46.9,28.8,27.76,NNW,347,11.0,19.7,49,0.00,,,-99.99,FreeWX-Wi 1.01,2013-04-18 09:25:00,
2013-04-18 05:30:00,46.9,28.2,27.76,NNW,345,11.0,18.8,48,0.00,,,-99.99,FreeWX-Wi 1.01,2013-04-18 09:30:00,
2013-04-18 05:35:00,46.8,28.0,27.82,NNW,343,12.0,17.4,48,0.00,,,-99.99,FreeWX-Wi 1.01,2013-04-18 09:35:00,
2013-04-18 05:40:00,46.6,27.5,27.82,NNW,342,11.0,18.8,47,0.00,,,-99.99,FreeWX-Wi 1.01,2013-04-18 09:40:00,
2013-04-18 05:45:00,46.4,27.9,27.82,NNW,343,11.0,17.0,48,0.00,,,-99.99,FreeWX-Wi 1.01,2013-04-18 09:45:00,
2013-04-18 05:50:00,46.4,27.3,27.82,NNW,343,11.0,19.7,47,0.00,,,-99.99,FreeWX-Wi 1.01,2013-04-18 09:50:00,
2013-04-18 05:55:00,46.2,26.6,27.82,NNW,342,10.0,15.0,46,0.00,,,-99.99,FreeWX-Wi 1.01,2013-04-18 09:55:00,
2013-04-18 06:00:00,46.0,26.4,27.82,NNW,343,10.0,18.3,46,0.00,,,-99.99,FreeWX-Wi 1.01,2013-04-18 10:00:00,
2013-04-18 06:05:00,46.0,27.0,27.85,NNW,347,10.0,18.3,47,0.00,,,-99.99,FreeWX-Wi 1.01,2013-04-18 10:05:00,
2013-04-18 06:10:00,46.0,27.5,27.85,NNW,348,9.0,12.8,48,0.00,,,-99.99,FreeWX-Wi 1.01,2013-04-18 10:10:00,
2013-04-18 06:15:00,46.0,27.0,27.85,NNW,348,9.0,15.4,47,0.00,,,-99.99,FreeWX-Wi 1.01,2013-04-18 10:15:00,
2013-04-18 06:20:00,45.9,25.2,27.82,NNW,346,10.0,18.8,44,0.00,,,-99.99,FreeWX-Wi 1.01,2013-04-18 10:20:00,
2013-04-18 06:25:00,45.5,24.8,27.82,NNW,345,10.0,15.4,44,0.00,,,-99.99,FreeWX-Wi 1.01,2013-04-18 10:25:00,
2013-04-18 06:30:00,45.3,23.5,27.82,NNW,345,10.0,23.3,42,0.00,,,-99.99,FreeWX-Wi 1.01,2013-04-18 10:30:00,
2013-04-18 06:35:00,45.0,23.2,27.82,NNW,343,11.0,22.4,42,0.00,,,-99.99,FreeWX-Wi 1.01,2013-04-18 10:35:00,
2013-04-18 06:40:00,44.8,23.2,27.82,NNW,341,12.0,21.9,42,0.00,,,-99.99,FreeWX-Wi 1.01,2013-04-18 10:40:00,
2013-04-18 06:45:00,44.6,23.0,27.82,NNW,340,12.0,19.2,42,0.00,,,-99.99,FreeWX-Wi 1.01,2013-04-18 10:45:00,
2013-04-18 06:50:00,44.2,22.6,27.82,NNW,341,12.0,22.8,42,0.00,,,-99.99,FreeWX-Wi 1.01,2013-04-18 10:50:00,
2013-04-18 06:55:00,44.2,22.6,27.82,NNW,341,13.0,16.8,42,0.00,,,-99.99,FreeWX-Wi 1.01,2013-04-18 10:55:00,
2013-04-18 07:00:00,44.1,22.5,27.82,NNW,338,13.0,21.0,42,0.00,,,-99.99,FreeWX-Wi 1.01,2013-04-18 11:00:00,
2013-04-18 07:05:00,44.1,22.5,27.85,NNW,338,13.0,18.8,42,0.00,,,-99.99,FreeWX-Wi 1.01,2013-04-18 11:05:00,
2013-04-18 07:10:00,43.9,22.3,27.85,NNW,339,13.0,17.4,42,0.00,,,-99.99,FreeWX-Wi 1.01,2013-04-18 11:10:00,
2013-04-18 07:15:00,43.9,22.8,27.85,NNW,339,12.0,15.0,43,0.00,,,-99.99,FreeWX-Wi 1.01,2013-04-18 11:15:00,
2013-04-18 07:20:00,43.7,22.6,27.85,NNW,339,12.0,17.0,43,0.00,,,-99.99,FreeWX-Wi 1.01,2013-04-18 11:20:00,
2013-04-18 07:25:00,43.7,22.6,27.85,NNW,341,11.0,15.9,43,0.00,,,-99.99,FreeWX-Wi 1.01,2013-04-18 11:25:00,
2013-04-18 07:30:00,43.5,22.5,27.85,NNW,342,11.0,19.7,43,0.00,,,-99.99,FreeWX-Wi 1.01,2013-04-18 11:30:00,
2013-04-18 07:35:00,43.5,22.5,27.85,NNW,341,11.0,19.7,43,0.00,,,-99.99,FreeWX-Wi 1.01,2013-04-18 11:35:00,
2013-04-18 07:40:00,43.3,22.3,27.85,NNW,342,11.0,15.4,43,0.00,,,-99.99,FreeWX-Wi 1.01,2013-04-18 11:40:00,
2013-04-18 07:45:00,43.3,22.3,27.85,NNW,343,10.0,13.6,43,0.00,,,-99.99,FreeWX-Wi 1.01,2013-04-18 11:45:00,
2013-04-18 07:50:00,43.2,21.0,27.88,NNW,343,10.0,17.4,41,0.00,,,-99.99,FreeWX-Wi 1.01,2013-04-18 11:50:00,
2013-04-18 07:55:00,43.2,21.0,27.88,NNW,341,11.0,19.7,41,0.00,,,-99.99,FreeWX-Wi 1.01,2013-04-18 11:55:00,
2013-04-18 08:00:00,43.2,21.0,27.88,NNW,341,11.0,18.3,41,0.00,,,-99.99,FreeWX-Wi 1.01,2013-04-18 12:00:00,
2013-04-18 08:05:00,43.0,21.6,27.88,NNW,342,11.0,17.4,42,0.00,,,-99.99,FreeWX-Wi 1.01,2013-04-18 12:05:00,
2013-04-18 08:10:00,42.8,20.7,27.88,NNW,339,12.0,19.2,41,0.00,,,-99.99,FreeWX-Wi 1.01,2013-04-18 12:10:00,
2013-04-18 08:15:00,42.8,21.4,27.88,NNW,338,12.0,16.8,42,0.00,,,-99.99,FreeWX-Wi 1.01,2013-04-18 12:15:00,
2013-04-18 08:20:00,42.8,20.7,27.90,NNW,338,12.0,21.9,41,0.00,,,-99.99,FreeWX-Wi 1.01,2013-04-18 12:20:00,
2013-04-18 08:25:00,42.8,20.7,27.90,NNW,338,12.0,22.4,41,0.00,,,-99.99,FreeWX-Wi 1.01,2013-04-18 12:25:00,
2013-04-18 08:30:00,42.8,20.1,27.90,NNW,339,12.0,23.3,40,0.00,,,-99.99,FreeWX-Wi 1.01,2013-04-18 12:30:00,
2013-04-18 08:35:00,42.8,20.7,27.90,NNW,337,12.0,21.5,41,0.00,,,-99.99,FreeWX-Wi 1.01,2013-04-18 12:35:00,
2013-04-18 08:40:00,42.6,20.7,27.90,NNW,339,12.0,17.4,41,0.00,,,-99.99,FreeWX-Wi 1.01,2013-04-18 12:40:00,
2013-04-18 08:45:00,42.6,20.7,27.90,NNW,340,12.0,16.8,41,0.00,,,-99.99,FreeWX-Wi 1.01,2013-04-18 12:45:00,
2013-04-18 08:50:00,42.4,20.5,27.93,NNW,340,12.0,19.7,41,0.00,,,-99.99,FreeWX-Wi 1.01,2013-04-18 12:50:00,
2013-04-18 08:55:00,42.6,20.7,27.93,NNW,342,12.0,17.4,41,0.00,,,-99.99,FreeWX-Wi 1.01,2013-04-18 12:55:00,
2013-04-18 09:00:00,43.0,20.3,27.93,NNW,343,12.0,25.1,40,0.00,,,-99.99,FreeWX-Wi 1.01,2013-04-18 13:00:00,
2013-04-18 09:05:00,43.0,20.3,27.93,NNW,345,12.0,21.0,40,0.00,,,-99.99,FreeWX-Wi 1.01,2013-04-18 13:05:00,
2013-04-18 09:10:00,43.3,20.1,27.93,NNW,347,12.0,17.0,39,0.00,,,-99.99,FreeWX-Wi 1.01,2013-04-18 13:10:00,
2013-04-18 09:15:00,43.7,20.3,27.93,North,349,12.0,16.3,39,0.00,,,-99.99,FreeWX-Wi 1.01,2013-04-18 13:15:00,
2013-04-18 09:20:00,44.6,21.2,27.93,North,349,12.0,13.2,39,0.00,,,-99.99,FreeWX-Wi 1.01,2013-04-18 13:20:00,
2013-04-18 09:25:00,44.6,20.7,27.93,North,349,12.0,19.2,38,0.00,,,-99.99,FreeWX-Wi 1.01,2013-04-18 13:25:00,
2013-04-18 09:30:00,44.8,20.7,27.93,North,350,12.0,17.0,38,0.00,,,-99.99,FreeWX-Wi 1.01,2013-04-18 13:30:00,
2013-04-18 09:35:00,45.1,21.0,27.93,North,351,12.0,17.0,38,0.00,,,-99.99,FreeWX-Wi 1.01,2013-04-18 13:35:00,
2013-04-18 09:40:00,45.3,20.7,27.93,North,352,12.0,17.4,37,0.00,,,-99.99,FreeWX-Wi 1.01,2013-04-18 13:40:00,
2013-04-18 09:45:00,45.7,20.8,27.93,North,352,12.0,19.7,37,0.00,,,-99.99,FreeWX-Wi 1.01,2013-04-18 13:45:00,
2013-04-18 09:50:00,45.9,19.8,27.93,North,352,12.0,20.6,35,0.00,,,-99.99,FreeWX-Wi 1.01,2013-04-18 13:50:00,
2013-04-18 09:55:00,45.9,19.8,27.93,North,352,12.0,22.4,35,0.00,,,-99.99,FreeWX-Wi 1.01,2013-04-18 13:55:00,
2013-04-18 10:00:00,45.3,20.7,27.93,North,352,12.0,17.0,37,0.00,,,-99.99,FreeWX-Wi 1.01,2013-04-18 14:00:00,
2013-04-18 10:05:00,45.3,19.2,27.93,North,353,12.0,18.3,35,0.00,,,-99.99,FreeWX-Wi 1.01,2013-04-18 14:05:00,
2013-04-18 10:10:00,45.9,20.5,27.93,North,355,13.0,19.7,36,0.00,,,-99.99,FreeWX-Wi 1.01,2013-04-18 14:10:00,
2013-04-18 10:15:00,46.4,20.8,27.93,North,355,13.0,20.6,36,0.00,,,-99.99,FreeWX-Wi 1.01,2013-04-18 14:15:00,
2013-04-18 10:20:00,47.1,20.8,27.96,North,354,13.0,19.7,35,0.00,,,-99.99,FreeWX-Wi 1.01,2013-04-18 14:20:00,
2013-04-18 10:25:00,47.7,19.9,27.96,North,352,13.0,17.9,33,0.00,,,-99.99,FreeWX-Wi 1.01,2013-04-18 14:25:00,
2013-04-18 10:30:00,48.4,19.9,27.96,North,351,13.0,19.2,32,0.00,,,-99.99,FreeWX-Wi 1.01,2013-04-18 14:30:00,
2013-04-18 10:36:00,48.0,20.3,27.96,North,351,12.0,16.8,33,0.00,,,-99.99,FreeWX-Wi 1.01,2013-04-18 14:36:00,
2013-04-18 10:41:00,48.2,19.8,27.96,North,352,12.0,16.8,32,0.00,,,-99.99,FreeWX-Wi 1.01,2013-04-18 14:41:00,
2013-04-18 10:46:00,48.7,20.3,27.96,North,351,12.0,17.4,32,0.00,,,-99.99,FreeWX-Wi 1.01,2013-04-18 14:46:00,
2013-04-18 10:51:00,49.6,20.3,27.96,North,350,12.0,14.5,31,0.00,,,-99.99,FreeWX-Wi 1.01,2013-04-18 14:51:00,
2013-04-18 10:56:00,50.4,20.1,27.96,North,350,12.0,13.2,30,0.00,,,-99.99,FreeWX-Wi 1.01,2013-04-18 14:56:00,
2013-04-18 11:01:00,50.5,20.3,27.96,North,350,12.0,0.0,30,0.00,,,-99.99,FreeWX-Wi 1.01,2013-04-18 15:01:00,
2013-04-18 11:06:00,50.7,20.5,27.96,North,350,12.0,0.0,30,0.00,,,-99.99,FreeWX-Wi 1.01,2013-04-18 15:06:00,
2013-04-18 11:11:00,51.1,20.7,27.96,North,350,12.0,17.4,30,0.00,,,-99.99,FreeWX-Wi 1.01,2013-04-18 15:11:00,
2013-04-18 11:16:00,50.7,19.6,27.96,North,350,12.0,0.0,29,0.00,,,-99.99,FreeWX-Wi 1.01,2013-04-18 15:16:00,
2013-04-18 11:21:00,50.7,20.5,27.96,North,350,12.0,0.0,30,0.00,,,-99.99,FreeWX-Wi 1.01,2013-04-18 15:21:00,
2013-04-18 11:26:00,51.1,19.9,27.96,North,350,12.0,0.0,29,0.00,,,-99.99,FreeWX-Wi 1.01,2013-04-18 15:26:00,
2013-04-18 11:31:00,52.2,20.1,27.96,North,350,12.0,12.0,28,0.00,,,-99.99,FreeWX-Wi 1.01,2013-04-18 15:31:00,
2013-04-18 11:36:00,52.7,20.5,27.96,NNW,348,12.0,17.0,28,0.00,,,-99.99,FreeWX-Wi 1.01,2013-04-18 15:36:00,
2013-04-18 11:41:00,-999.9,99.9,27.96,NNW,347,12.0,23.3,27,0.00,,,-99.99,FreeWX-Wi 1.01,2013-04-18 15:41:00,
2013-04-18 11:46:00,-999.9,99.9,27.96,North,350,12.0,25.5,27,0.00,,,-99.99,FreeWX-Wi 1.01,2013-04-18 15:46:00,
2013-04-18 11:51:00,-999.9,99.9,27.96,North,350,12.0,17.4,27,0.00,,,-99.99,FreeWX-Wi 1.01,2013-04-18 15:51:00,
2013-04-18 11:56:00,-999.9,99.9,27.96,North,349,12.0,17.9,27,0.00,,,-99.99,FreeWX-Wi 1.01,2013-04-18 15:56:00,
2013-04-18 12:01:00,-999.9,99.9,27.96,North,350,12.0,17.4,27,0.00,,,-99.99,FreeWX-Wi 1.01,2013-04-18 16:01:00,
2013-04-18 12:06:00,-999.9,99.9,27.96,North,350,12.0,19.2,27,0.00,,,-99.99,FreeWX-Wi 1.01,2013-04-18 16:06:00,
2013-04-18 12:11:00,-999.9,99.9,27.96,North,350,11.0,17.0,27,0.00,,,-99.99,FreeWX-Wi 1.01,2013-04-18 16:11:00,
2013-04-18 12:16:00,-999.9,99.9,27.96,NNW,345,12.0,19.2,26,0.00,,,-99.99,FreeWX-Wi 1.01,2013-04-18 16:16:00,
2013-04-18 12:21:00,-999.9,99.9,27.96,NNW,343,12.0,15.9,26,0.00,,,-99.99,FreeWX-Wi 1.01,2013-04-18 16:21:00,
2013-04-18 12:26:00,-999.9,99.9,27.96,NNW,342,12.0,21.0,26,0.00,,,-99.99,FreeWX-Wi 1.01,2013-04-18 16:26:00,
2013-04-18 12:31:00,-999.9,99.9,27.96,NNW,342,12.0,19.7,26,0.00,,,-99.99,FreeWX-Wi 1.01,2013-04-18 16:31:00,
2013-04-18 12:36:00,-999.9,99.9,27.96,NNW,344,12.0,17.9,26,0.00,,,-99.99,FreeWX-Wi 1.01,2013-04-18 16:36:00,
2013-04-18 12:41:00,-999.9,99.9,27.96,NNW,345,12.0,19.2,26,0.00,,,-99.99,FreeWX-Wi 1.01,2013-04-18 16:41:00,
2013-04-18 12:46:00,-999.9,99.9,27.96,North,349,12.0,14.5,26,0.00,,,-99.99,FreeWX-Wi 1.01,2013-04-18 16:46:00,
2013-04-18 12:51:00,-999.9,99.9,27.96,North,351,12.0,18.3,26,0.00,,,-99.99,FreeWX-Wi 1.01,2013-04-18 16:51:00,
2013-04-18 14:27:00,57.6,21.0,29.94,NNW,345,10.0,14.5,24,0.00,,,-99.99,FreeWX-Wi 1.01,2013-04-18 18:27:00,
2013-04-18 14:32:00,57.9,21.4,29.94,NNW,348,10.0,18.8,24,0.00,,,-99.99,FreeWX-Wi 1.01,2013-04-18 18:32:00,
2013-04-18 14:37:00,58.3,21.7,29.94,North,354,10.0,16.8,24,0.00,,,-99.99,FreeWX-Wi 1.01,2013-04-18 18:37:00,
2013-04-18 14:42:00,58.1,19.4,29.94,North,355,10.0,14.5,22,0.00,,,-99.99,FreeWX-Wi 1.01,2013-04-18 18:42:00,
2013-04-18 14:47:00,58.3,19.6,29.94,North,353,10.0,13.6,22,0.00,,,-99.99,FreeWX-Wi 1.01,2013-04-18 18:47:00,
2013-04-18 14:52:00,58.3,19.6,29.94,North,354,10.0,15.4,22,0.00,,,-99.99,FreeWX-Wi 1.01,2013-04-18 18:52:00,
2013-04-18 14:57:00,58.5,19.8,29.94,North,350,10.0,14.1,22,0.00,,,-99.99,FreeWX-Wi 1.01,2013-04-18 18:57:00,
2013-04-18 15:02:00,59.0,22.3,29.94,NNW,347,10.0,14.1,24,0.00,,,-99.99,FreeWX-Wi 1.01,2013-04-18 19:02:00,
2013-04-18 15:07:00,59.0,20.3,29.94,NNW,344,10.0,15.0,22,0.00,,,-99.99,FreeWX-Wi 1.01,2013-04-18 19:07:00,
2013-04-18 15:12:00,58.3,19.6,29.94,NNW,346,10.0,19.2,22,0.00,,,-99.99,FreeWX-Wi 1.01,2013-04-18 19:12:00,
2013-04-18 15:17:00,58.1,19.4,29.94,North,349,10.0,17.4,22,0.00,,,-99.99,FreeWX-Wi 1.01,2013-04-18 19:17:00,
2013-04-18 15:22:00,58.5,19.8,29.94,North,351,10.0,13.2,22,0.00,,,-99.99,FreeWX-Wi 1.01,2013-04-18 19:22:00,
2013-04-18 15:27:00,58.8,20.1,29.94,North,353,10.0,20.6,22,0.00,,,-99.99,FreeWX-Wi 1.01,2013-04-18 19:27:00,
2013-04-18 15:32:00,59.0,20.3,29.94,North,352,10.0,19.2,22,0.00,,,-99.99,FreeWX-Wi 1.01,2013-04-18 19:32:00,
2013-04-18 15:37:00,59.2,20.3,29.94,North,352,10.0,13.2,22,0.00,,,-99.99,FreeWX-Wi 1.01,2013-04-18 19:37:00,
2013-04-18 15:42:00,59.4,20.5,29.94,North,349,10.0,16.3,22,0.00,,,-99.99,FreeWX-Wi 1.01,2013-04-18 19:42:00,
2013-04-18 15:47:00,59.2,20.3,29.94,NNW,343,10.0,17.4,22,0.00,,,-99.99,FreeWX-Wi 1.01,2013-04-18 19:47:00,
2013-04-18 15:54:00,59.0,16.9,29.94,NNW,341,11.0,17.0,19,0.00,,,-99.99,FreeWX-Wi 1.01,2013-04-18 19:54:00,
2013-04-18 16:00:00,59.2,16.9,29.94,NNW,345,10.0,15.4,19,0.00,,,-99.99,FreeWX-Wi 1.01,2013-04-18 20:00:00,
2013-04-18 16:05:00,59.0,20.3,29.94,North,350,10.0,17.0,22,0.00,,,-99.99,FreeWX-Wi 1.01,2013-04-18 20:05:00,
2013-04-18 16:10:00,59.2,20.3,29.94,North,351,11.0,17.4,22,0.00,,,-99.99,FreeWX-Wi 1.01,2013-04-18 20:10:00,
2013-04-18 16:16:00,59.4,17.1,29.94,North,355,11.0,17.9,19,0.00,,,-99.99,FreeWX-Wi 1.01,2013-04-18 20:16:00,
2013-04-18 16:21:00,59.4,20.5,29.94,North,357,11.0,18.3,22,0.00,,,-99.99,FreeWX-Wi 1.01,2013-04-18 20:21:00,
2013-04-18 16:26:00,59.7,20.8,29.94,North,354,11.0,14.5,22,0.00,,,-99.99,FreeWX-Wi 1.01,2013-04-18 20:26:00,
2013-04-18 16:31:00,59.7,17.4,29.94,North,351,10.0,14.5,19,0.00,,,-99.99,FreeWX-Wi 1.01,2013-04-18 20:31:00,
2013-04-18 16:36:00,59.2,16.9,29.94,North,352,10.0,14.5,19,0.00,,,-99.99,FreeWX-Wi 1.01,2013-04-18 20:36:00,
2013-04-18 16:41:00,59.5,17.2,29.94,North,351,10.0,15.0,19,0.00,,,-99.99,FreeWX-Wi 1.01,2013-04-18 20:41:00,
2013-04-18 16:46:00,59.7,17.4,29.94,North,350,10.0,16.3,19,0.00,,,-99.99,FreeWX-Wi 1.01,2013-04-18 20:46:00,
2013-04-18 16:51:00,59.7,17.4,29.94,North,352,10.0,17.4,19,0.00,,,-99.99,FreeWX-Wi 1.01,2013-04-18 20:51:00,
2013-04-18 16:56:00,59.9,17.6,29.94,North,356,10.0,15.0,19,0.00,,,-99.99,FreeWX-Wi 1.01,2013-04-18 20:56:00,
2013-04-18 17:01:00,60.1,17.8,29.94,North,352,10.0,17.0,19,0.00,,,-99.99,FreeWX-Wi 1.01,2013-04-18 21:01:00,
2013-04-18 17:06:00,60.1,17.8,29.94,North,349,10.0,15.4,19,0.00,,,-99.99,FreeWX-Wi 1.01,2013-04-18 21:06:00,
2013-04-18 17:17:00,60.1,17.8,29.94,North,351,10.0,15.0,19,0.00,,,-99.99,FreeWX-Wi 1.01,2013-04-18 21:17:00,
2013-04-18 17:22:00,60.4,18.0,29.94,North,352,10.0,15.0,19,0.00,,,-99.99,FreeWX-Wi 1.01,2013-04-18 21:22:00,
2013-04-18 17:27:00,60.6,18.1,29.94,North,350,10.0,15.0,19,0.00,,,-99.99,FreeWX-Wi 1.01,2013-04-18 21:27:00,
2013-04-18 17:32:00,60.4,18.0,29.94,North,350,10.0,15.9,19,0.00,,,-99.99,FreeWX-Wi 1.01,2013-04-18 21:32:00,
2013-04-18 17:37:00,59.9,17.6,29.94,North,354,10.0,19.2,19,0.00,,,-99.99,FreeWX-Wi 1.01,2013-04-18 21:37:00,
2013-04-18 17:42:00,59.7,17.4,29.94,North,350,10.0,15.0,19,0.00,,,-99.99,FreeWX-Wi 1.01,2013-04-18 21:42:00,
2013-04-18 17:47:00,60.3,17.8,29.94,NNW,347,10.0,17.4,19,0.00,,,-99.99,FreeWX-Wi 1.01,2013-04-18 21:47:00,
2013-04-18 17:52:00,60.3,17.8,29.94,NNW,342,10.0,18.8,19,0.00,,,-99.99,FreeWX-Wi 1.01,2013-04-18 21:52:00,
2013-04-18 17:57:00,60.1,17.8,29.94,NNW,340,11.0,15.4,19,0.00,,,-99.99,FreeWX-Wi 1.01,2013-04-18 21:57:00,
2013-04-18 18:02:00,60.3,17.8,29.94,NNW,341,11.0,16.3,19,0.00,,,-99.99,FreeWX-Wi 1.01,2013-04-18 22:02:00,
2013-04-18 18:07:00,60.4,18.0,29.94,NNW,341,11.0,15.0,19,0.00,,,-99.99,FreeWX-Wi 1.01,2013-04-18 22:07:00,
2013-04-18 18:12:00,60.4,18.0,29.94,NNW,343,10.0,17.0,19,0.00,,,-99.99,FreeWX-Wi 1.01,2013-04-18 22:12:00,
2013-04-18 18:17:00,60.1,17.8,29.94,NNW,347,10.0,14.5,19,0.00,,,-99.99,FreeWX-Wi 1.01,2013-04-18 22:17:00,
2013-04-18 18:22:00,60.1,17.8,29.94,NNW,347,10.0,18.8,19,0.00,,,-99.99,FreeWX-Wi 1.01,2013-04-18 22:22:00,
2013-04-18 18:27:00,60.1,17.8,29.94,NNW,347,10.0,18.8,19,0.00,,,-99.99,FreeWX-Wi 1.01,2013-04-18 22:27:00,
2013-04-18 18:32:00,60.1,17.8,29.94,NNW,346,10.0,21.5,19,0.00,,,-99.99,FreeWX-Wi 1.01,2013-04-18 22:32:00,
2013-04-18 18:37:00,60.3,17.8,29.94,NNW,346,10.0,15.0,19,0.00,,,-99.99,FreeWX-Wi 1.01,2013-04-18 22:37:00,
2013-04-18 18:42:00,60.4,18.0,29.94,NNW,345,9.0,13.2,19,0.00,,,-99.99,FreeWX-Wi 1.01,2013-04-18 22:42:00,
2013-04-18 18:47:00,60.1,17.8,29.94,NNW,344,10.0,19.7,19,0.00,,,-99.99,FreeWX-Wi 1.01,2013-04-18 22:47:00,
2013-04-18 18:52:00,60.3,17.8,29.94,NNW,345,10.0,15.4,19,0.00,,,-99.99,FreeWX-Wi 1.01,2013-04-18 22:52:00,
2013-04-18 18:57:00,60.4,18.0,29.94,NNW,342,10.0,13.2,19,0.00,,,-99.99,FreeWX-Wi 1.01,2013-04-18 22:57:00,
2013-04-18 19:02:00,60.3,15.3,29.94,NNW,341,10.0,15.4,17,0.00,,,-99.99,FreeWX-Wi 1.01,2013-04-18 23:02:00,
2013-04-18 19:07:00,59.9,15.1,30.00,NNW,340,10.0,15.9,17,0.00,,,-99.99,FreeWX-Wi 1.01,2013-04-18 23:07:00,
2013-04-18 19:12:00,59.9,15.1,30.00,NNW,339,10.0,17.9,17,0.00,,,-99.99,FreeWX-Wi 1.01,2013-04-18 23:12:00,
2013-04-18 19:17:00,59.7,14.9,30.00,NNW,341,10.0,19.7,17,0.00,,,-99.99,FreeWX-Wi 1.01,2013-04-18 23:17:00,
2013-04-18 19:22:00,59.5,14.7,30.00,NNW,342,10.0,17.0,17,0.00,,,-99.99,FreeWX-Wi 1.01,2013-04-18 23:22:00,
2013-04-18 19:27:00,59.2,14.4,30.00,NNW,346,10.0,15.4,17,0.00,,,-99.99,FreeWX-Wi 1.01,2013-04-18 23:27:00,
2013-04-18 19:32:00,59.2,14.4,30.00,North,350,10.0,15.4,17,0.00,,,-99.99,FreeWX-Wi 1.01,2013-04-18 23:32:00,
2013-04-18 19:37:00,59.0,14.2,30.00,North,349,9.0,13.2,17,0.00,,,-99.99,FreeWX-Wi 1.01,2013-04-18 23:37:00,
2013-04-18 19:42:00,58.8,14.2,30.00,North,349,10.0,17.0,17,0.00,,,-99.99,FreeWX-Wi 1.01,2013-04-18 23:42:00,
2013-04-18 19:47:00,58.5,13.8,30.00,North,351,9.0,12.8,17,0.00,,,-99.99,FreeWX-Wi 1.01,2013-04-18 23:47:00,
2013-04-18 19:52:00,58.3,13.6,30.00,North,353,9.0,15.4,17,0.00,,,-99.99,FreeWX-Wi 1.01,2013-04-18 23:52:00,
2013-04-18 19:57:00,57.9,13.5,30.00,North,355,9.0,14.1,17,0.00,,,-99.99,FreeWX-Wi 1.01,2013-04-18 23:57:00,
2013-04-18 20:02:00,57.6,13.1,30.00,North,358,9.0,14.5,17,0.00,,,-99.99,FreeWX-Wi 1.01,2013-04-19 00:02:00,
2013-04-18 20:07:00,57.6,13.1,30.00,North,1,9.0,12.3,17,0.00,,,-99.99,FreeWX-Wi 1.01,2013-04-19 00:07:00,
2013-04-18 20:12:00,57.6,13.1,30.00,North,0,9.0,13.2,17,0.00,,,-99.99,FreeWX-Wi 1.01,2013-04-19 00:12:00,
2013-04-18 20:17:00,57.4,12.9,30.00,North,359,9.0,12.8,17,0.00,,,-99.99,FreeWX-Wi 1.01,2013-04-19 00:17:00,
2013-04-18 20:22:00,57.0,12.7,30.00,North,1,9.0,13.6,17,0.00,,,-99.99,FreeWX-Wi 1.01,2013-04-19 00:22:00,
2013-04-18 20:27:00,56.7,12.4,30.00,North,1,8.0,12.8,17,0.00,,,-99.99,FreeWX-Wi 1.01,2013-04-19 00:27:00,
2013-04-18 20:32:00,56.5,12.2,30.00,North,3,9.0,15.4,17,0.00,,,-99.99,FreeWX-Wi 1.01,2013-04-19 00:32:00,
2013-04-18 20:37:00,56.3,12.0,30.00,North,6,9.0,13.2,17,0.00,,,-99.99,FreeWX-Wi 1.01,2013-04-19 00:37:00,
2013-04-18 20:42:00,55.9,11.8,30.00,NNE,12,9.0,12.8,17,0.00,,,-99.99,FreeWX-Wi 1.01,2013-04-19 00:42:00,
2013-04-18 20:47:00,55.6,11.5,30.00,NNE,15,8.0,10.5,17,0.00,,,-99.99,FreeWX-Wi 1.01,2013-04-19 00:47:00,
2013-04-18 20:52:00,55.4,11.3,30.00,NNE,15,8.0,12.3,17,0.00,,,-99.99,FreeWX-Wi 1.01,2013-04-19 00:52:00,
2013-04-18 20:57:00,55.2,12.6,30.00,NNE,14,8.0,11.0,18,0.00,,,-99.99,FreeWX-Wi 1.01,2013-04-19 00:57:00,
2013-04-18 21:02:00,54.7,12.0,30.00,NNE,16,7.0,12.3,18,0.00,,,-99.99,FreeWX-Wi 1.01,2013-04-19 01:02:00,
2013-04-18 21:07:00,54.3,11.7,30.00,NNE,17,7.0,10.1,18,0.00,,,-99.99,FreeWX-Wi 1.01,2013-04-19 01:07:00,
2013-04-18 21:12:00,53.8,11.3,30.00,NNE,17,7.0,10.1,18,0.00,,,-99.99,FreeWX-Wi 1.01,2013-04-19 01:12:00,
2013-04-18 21:17:00,53.4,10.9,30.00,NNE,16,7.0,10.5,18,0.00,,,-99.99,FreeWX-Wi 1.01,2013-04-19 01:17:00,
2013-04-18 21:22:00,53.1,10.8,30.00,NNE,18,6.0,8.7,18,0.00,,,-99.99,FreeWX-Wi 1.01,2013-04-19 01:22:00,
2013-04-18 21:27:00,52.7,10.4,30.00,NNE,20,6.0,8.7,18,0.00,,,-99.99,FreeWX-Wi 1.01,2013-04-19 01:27:00,
2013-04-18 21:32:00,52.3,10.0,30.00,NNE,21,6.0,6.3,18,0.00,,,-99.99,FreeWX-Wi 1.01,2013-04-19 01:32:00,
2013-04-18 21:37:00,52.0,9.9,30.06,NNE,22,6.0,6.3,18,0.00,,,-99.99,FreeWX-Wi 1.01,2013-04-19 01:37:00,
2013-04-18 21:42:00,51.6,10.8,30.06,NNE,24,5.0,7.6,19,0.00,,,-99.99,FreeWX-Wi 1.01,2013-04-19 01:42:00,
2013-04-18 21:47:00,51.3,10.4,30.06,NNE,25,5.0,8.1,19,0.00,,,-99.99,FreeWX-Wi 1.01,2013-04-19 01:47:00,
2013-04-18 21:52:00,50.9,10.2,30.06,NNE,24,5.0,8.7,19,0.00,,,-99.99,FreeWX-Wi 1.01,2013-04-19 01:52:00,
2013-04-18 21:57:00,50.7,10.0,30.06,NNE,23,5.0,8.3,19,0.00,,,-99.99,FreeWX-Wi 1.01,2013-04-19 01:57:00,
2013-04-18 22:02:00,50.5,9.9,30.06,NNE,21,5.0,7.6,19,0.00,,,-99.99,FreeWX-Wi 1.01,2013-04-19 02:02:00,
2013-04-18 22:07:00,50.2,9.5,30.06,NNE,20,5.0,5.4,19,0.00,,,-99.99,FreeWX-Wi 1.01,2013-04-19 02:07:00,
2013-04-18 22:12:00,49.6,9.1,30.06,NNE,19,4.0,5.8,19,0.00,,,-99.99,FreeWX-Wi 1.01,2013-04-19 02:12:00,
2013-04-18 22:17:00,49.3,10.9,30.06,NNE,19,4.0,5.8,21,0.00,,,-99.99,FreeWX-Wi 1.01,2013-04-19 02:17:00,
2013-04-18 22:22:00,49.1,10.9,30.06,NNE,21,4.0,6.7,21,0.00,,,-99.99,FreeWX-Wi 1.01,2013-04-19 02:22:00,
2013-04-18 22:27:00,48.7,10.6,30.06,NNE,24,4.0,6.3,21,0.00,,,-99.99,FreeWX-Wi 1.01,2013-04-19 02:27:00,
2013-04-18 22:32:00,48.7,10.6,30.06,NNE,26,4.0,6.3,21,0.00,,,-99.99,FreeWX-Wi 1.01,2013-04-19 02:32:00,
2013-04-18 22:37:00,48.6,10.4,30.06,NNE,30,4.0,6.7,21,0.00,,,-99.99,FreeWX-Wi 1.01,2013-04-19 02:37:00,
2013-04-18 22:42:00,48.4,10.2,30.06,NNE,31,5.0,8.1,21,0.00,,,-99.99,FreeWX-Wi 1.01,2013-04-19 02:42:00,
2013-04-18 22:47:00,48.4,10.2,30.06,NNE,31,5.0,7.6,21,0.00,,,-99.99,FreeWX-Wi 1.01,2013-04-19 02:47:00,
2013-04-18 22:52:00,48.4,10.2,30.06,NNE,31,5.0,8.7,21,0.00,,,-99.99,FreeWX-Wi 1.01,2013-04-19 02:52:00,
2013-04-18 22:57:00,48.4,10.2,30.06,NNE,31,6.0,11.0,21,0.00,,,-99.99,FreeWX-Wi 1.01,2013-04-19 02:57:00,
2013-04-18 23:02:00,48.4,10.2,30.06,NNE,33,7.0,11.0,21,0.00,,,-99.99,FreeWX-Wi 1.01,2013-04-19 03:02:00,
2013-04-18 23:07:00,48.2,10.0,30.06,NNE,33,7.0,11.0,21,0.00,,,-99.99,FreeWX-Wi 1.01,2013-04-19 03:07:00,
2013-04-18 23:12:00,47.8,10.9,30.06,NE,34,8.0,11.4,22,0.00,,,-99.99,FreeWX-Wi 1.01,2013-04-19 03:12:00,
2013-04-18 23:17:00,47.7,10.8,30.06,NNE,33,8.0,8.7,22,0.00,,,-99.99,FreeWX-Wi 1.01,2013-04-19 03:17:00,
2013-04-18 23:22:00,47.5,10.6,30.06,NNE,33,8.0,8.1,22,0.00,,,-99.99,FreeWX-Wi 1.01,2013-04-19 03:22:00,
2013-04-18 23:27:00,47.5,10.6,30.06,NNE,32,7.0,7.6,22,0.00,,,-99.99,FreeWX-Wi 1.01,2013-04-19 03:27:00,
2013-04-18 23:32:00,47.3,10.4,30.06,NNE,30,7.0,8.7,22,0.00,,,-99.99,FreeWX-Wi 1.01,2013-04-19 03:32:00,
2013-04-18 23:37:00,47.3,10.4,30.12,NNE,29,6.0,10.1,22,0.00,,,-99.99,FreeWX-Wi 1.01,2013-04-19 03:37:00,
2013-04-18 23:42:00,47.1,10.2,30.12,NNE,28,6.0,7.6,22,0.00,,,-99.99,FreeWX-Wi 1.01,2013-04-19 03:42:00,
2013-04-18 23:47:00,46.9,10.0,30.12,NNE,27,6.0,8.3,22,0.00,,,-99.99,FreeWX-Wi 1.01,2013-04-19 03:47:00,
2013-04-18 23:52:00,46.9,10.0,30.12,NNE,27,6.0,8.1,22,0.00,,,-99.99,FreeWX-Wi 1.01,2013-04-19 03:52:00,
2013-04-18 23:57:00,46.9,10.0,30.12,NNE,27,6.0,8.7,22,0.00,,,-99.99,FreeWX-Wi 1.01,2013-04-19 03:57:00,